[[{"header":{"parameterUnit":"m.s-1","parameterCategory":1,"la1":30.2991,"la2":30.254,"lo1":-89.0895,"lo2":-89.0444,"dy":0.0017,"dx":0.0017,"nx":28,"ny":28,"refTime":"2025-03-29T21:00:00:Z","depth":0,"parameterNumber":2,"parameterNumberName":"U-component_of_WINDS"},"data":[0,0,0,0,0,0,0,0,0,0,0,0,0,0,0,0,0,0,0,0,0,0,0,0,0,0,0,0,0,0,0,0,0,0,0,0,0,0,0,0,0,0,0,0,0,0,0,0,0,0,0,0,0,0,0,0,0,0,-3.0902,-3.0903,0,-3.095,-3.0951,-3.0951,-3.0943,-3.0943,-3.0942,-3.0941,-3.0997,-3.0999,-3.1001,0,0,0,0,0,0,0,0,0,0,0,0,0,-3.081,-3.0812,-3.0902,-3.0903,-3.0903,-3.095,-3.0951,-3.0951,-3.0944,-3.0942,-3.0941,-3.094,-3.0996,-3.0998,-3.1001,0,0,0,0,0,0,0,0,0,0,0,0,0,-3.0853,-3.0812,-3.0902,-3.0905,-3.0906,-3.095,-3.0951,-3.0951,-3.0944,-3.0942,-3.0941,-3.094,-3.0995,-3.0998,-3.1002,-3.1048,0,0,-3.1012,-3.1013,0,0,0,0,0,0,0,0,-3.0851,-3.0857,-3.0904,-3.0905,-3.0906,-3.0939,-3.0938,-3.0984,-3.0944,-3.093,-3.0941,-3.0939,-3.0979,-3.0984,-3.0996,-3.105,-3.1053,-3.1012,-3.1014,-3.1016,-3.1017,0,0,0,0,0,0,0,-3.0848,-3.0855,-3.0921,-3.0905,-3.0906,-3.0906,-3.0911,-3.0947,-3.0961,-3.0931,-3.093,-3.0936,-3.0979,-3.0992,-3.0997,-3.1054,-3.1012,-3.1015,-3.1017,-3.1019,-3.1149,-3.115,0,0,0,0,0,0,-3.0843,-3.0852,-3.092,-3.0923,-3.0874,-3.0908,-3.0914,-3.093,-3.096,-3.0964,-3.0937,-3.0935,-3.0987,-3.0993,-3.0999,-3.1054,-3.1016,-3.1019,-3.1021,-3.1147,-3.1149,-3.1151,0,0,0,0,0,0,-3.0841,-3.0849,-3.0918,-3.0887,-3.0896,-3.0911,-3.093,-3.0932,-3.0944,-3.0965,-3.0968,-3.0947,-3.0986,-3.0994,-3.1035,-3.1056,-3.102,-3.1024,-3.1146,-3.1148,-3.115,-3.1166,0,0,0,0,0,0,-3.0839,-3.0849,-3.0865,-3.0888,-3.0898,-3.0952,-3.0931,-3.0933,-3.095,-3.0948,-3.0975,-3.0979,-3.0986,-3.103,-3.1038,-3.106,-3.1026,-3.1144,-3.1147,-3.1149,-3.1164,-3.1168,-3.1172,0,0,0,0,0,-3.0835,-3.0869,-3.0866,-3.0874,-3.0918,-3.0953,-3.0959,-3.0964,-3.0951,-3.0969,-3.0982,-3.0978,-3.1052,-3.1034,-3.1044,-3.1067,-3.1143,-3.1146,-3.1149,-3.1162,-3.1167,-3.1172,0,0,0,0,0,0,-3.0851,-3.0872,-3.0869,-3.0911,-3.093,-3.0951,-3.0973,-3.097,-3.0995,-3.0993,-3.1001,-3.1007,-3.1049,-3.1062,-3.1042,-3.1113,-3.1096,-3.1101,-3.1102,-3.1108,-3.1112,-3.1108,-3.1029,0,0,0,0,0,-3.0859,-3.0884,-3.0902,-3.0937,-3.0947,-3.0958,-3.0974,-3.0976,-3.0997,-3.1006,-3.1022,-3.1044,-3.1073,-3.1091,-3.1119,-3.1166,-3.1172,-3.1186,-3.1191,-3.1194,-3.1199,-3.1224,-3.1231,-3.1161,-3.1161,-3.1161,0,0,-3.0877,-3.0891,-3.0907,-3.0941,-3.0956,-3.0982,-3.0965,-3.0995,-3.1015,-3.1011,-3.105,-3.1063,-3.1088,-3.1132,-3.1153,-3.1145,-3.1219,-3.1198,-3.1201,-3.1203,-3.1228,-3.1235,-3.124,-3.1163,-3.1163,-3.1162,0,0,-3.0922,-3.0936,-3.0966,-3.098,-3.1002,-3.101,-3.1017,-3.1039,-3.1047,-3.1085,-3.1083,-3.1108,-3.1157,-3.1175,-3.1191,-3.1242,-3.1239,-3.1251,-3.1274,-3.1298,-3.1304,-3.1309,-3.1327,-3.1333,-3.1255,-3.1255,-3.1255,0,-3.0942,-3.0979,-3.0982,-3.1011,-3.1026,-3.1021,-3.1053,-3.1068,-3.1099,-3.111,-3.1101,-3.1161,-3.1178,-3.1226,-3.1238,-3.1251,-3.126,-3.1247,-3.1302,-3.1307,-3.1312,-3.1329,-3.1336,-3.1256,-3.1256,-3.1256,-3.1256,0,-3.1002,-3.1029,-3.1051,-3.1078,-3.1096,-3.1126,-3.1135,-3.1153,-3.1154,-3.1163,-3.1202,-3.1222,-3.1253,-3.1265,-3.1267,-3.1313,-3.1307,-3.13,-3.1283,-3.132,-3.1336,-3.1343,-3.1258,-3.1258,-3.1257,-3.1257,0,0,-3.1059,-3.1086,-3.1094,-3.1106,-3.1129,-3.1151,-3.1181,-3.1209,-3.1224,-3.1246,-3.1272,-3.1313,-3.1305,-3.1323,-3.1328,-3.1349,-3.1388,-3.1339,-3.134,-3.1347,-3.1439,-3.1444,-3.1452,-3.1386,-3.1388,-3.1389,-3.1437,0,-3.1106,-3.1157,-3.116,-3.1207,-3.1231,-3.1227,-3.1253,-3.1272,-3.1281,-3.1305,-3.1316,-3.1344,-3.1333,-3.1344,-3.1365,-3.1378,-3.1406,-3.1375,-3.1412,-3.1413,-3.1405,-3.146,-3.1466,-3.151,-3.1444,-3.1445,-3.1445,0,-3.1168,-3.1188,-3.1236,-3.1255,-3.1265,-3.1289,-3.1314,-3.1336,-3.1358,-3.1363,-3.1382,-3.1383,-3.1416,-3.1398,-3.1444,-3.1422,-3.1438,-3.1447,-3.1449,-3.1452,-3.1431,-3.1465,-3.1525,-3.1531,-3.1456,-3.1455,-3.1454,0,-3.1204,-3.1243,-3.1277,-3.1287,-3.131,-3.1327,-3.1338,-3.1357,-3.1373,-3.1396,-3.1407,-3.1435,-3.145,-3.1472,-3.1481,-3.1467,-3.1527,-3.1509,-3.1533,-3.1533,-3.1545,-3.1544,-3.1608,-3.1556,-3.1556,-3.1556,-3.1556,0,-3.1255,-3.1285,-3.1293,-3.1314,-3.1347,-3.1351,-3.1385,-3.1395,-3.1412,-3.1436,-3.1436,-3.1459,-3.1469,-3.1494,-3.1502,-3.1539,-3.1546,-3.1552,-3.1554,-3.1552,-3.1551,-3.1562,-3.1559,-3.1558,-3.1557,-3.1557,-3.1557,0,-3.1301,-3.1307,-3.1344,-3.1362,-3.1367,-3.1391,-3.1407,-3.1428,-3.1436,-3.1467,-3.1474,-3.1488,-3.1518,-3.1529,-3.1566,-3.1571,-3.1613,-3.1613,-3.1605,-3.1606,-3.1628,-3.1626,-3.1701,-3.1711,-3.1653,-3.1653,-3.1654,0,-3.1333,-3.1356,-3.1375,-3.1389,-3.14,-3.1424,-3.144,-3.1445,-3.1462,-3.1487,-3.1505,-3.1533,-3.1556,-3.1604,-3.1619,-3.1647,-3.1647,-3.1672,-3.1652,-3.1649,-3.1647,-3.1645,-3.1648,-3.1675,-3.1676,-3.1676,-3.1677,0,-3.139,-3.1392,-3.1413,-3.1435,-3.1453,-3.1471,-3.1489,-3.1502,-3.151,-3.1529,-3.1558,-3.1575,-3.1611,-3.164,-3.1669,-3.1683,-3.1682,-3.1683,-3.169,-3.1688,-3.1682,-3.1685,-3.1615,-3.1681,-3.1681,-3.168,-3.168,-3.168,-3.143,-3.1449,-3.1465,-3.1489,-3.1502,-3.1518,-3.1538,-3.1548,-3.1571,-3.1599,-3.1601,-3.1632,-3.1653,-3.169,-3.1705,-3.1731,-3.1724,-3.1735,-3.1737,-3.174,-3.1741,-3.1678,-3.1736,-3.1736,-3.1736,-3.1736,-3.1736,0,-3.1486,-3.1496,-3.1517,-3.1541,-3.1559,-3.1554,-3.1573,-3.159,-3.1616,-3.1634,-3.1656,-3.1689,-3.1716,-3.1733,-3.1761,-3.1778,-3.1779,-3.1786,-3.1784,-3.1787,-3.1745,-3.1736,-3.1785,-3.1785,-3.1785,-3.1785,-3.1785,-3.1785,-3.1518,-3.1549,-3.1552,-3.1591,-3.1601,-3.1629,-3.164,-3.1656,-3.167,-3.1706,-3.1727,-3.1737,-3.1755,-3.1784,-3.181,-3.1814,-3.1824,-3.1832,-3.1836,-3.1796,-3.1791,-3.1786,-3.1777,-3.1834,-3.1834,-3.1876,-3.1876,-3.1877]},{"header":{"parameterUnit":"m.s-1","parameterCategory":1,"la1":30.2991,"la2":30.254,"lo1":-89.0895,"lo2":-89.0444,"dy":0.0017,"dx":0.0017,"nx":28,"ny":28,"refTime":"2025-03-29T21:00:00:Z","depth":0,"parameterNumber":3,"parameterNumberName":"V-component_of_WINDS"},"data":[0,0,0,0,0,0,0,0,0,0,0,0,0,0,0,0,0,0,0,0,0,0,0,0,0,0,0,0,0,0,0,0,0,0,0,0,0,0,0,0,0,0,0,0,0,0,0,0,0,0,0,0,0,0,0,0,0,0,4.1028,4.1029,0,4.1204,4.1206,4.1208,4.1329,4.133,4.1331,4.1332,4.1507,4.1511,4.1515,0,0,0,0,0,0,0,0,0,0,0,0,0,4.0794,4.0798,4.1027,4.103,4.1032,4.1204,4.1206,4.1208,4.1329,4.133,4.1331,4.1332,4.1506,4.1511,4.1515,0,0,0,0,0,0,0,0,0,0,0,0,0,4.0925,4.0799,4.1027,4.1113,4.1122,4.1203,4.1206,4.1209,4.1329,4.133,4.1332,4.1333,4.1505,4.151,4.1516,4.1524,0,0,4.1533,4.1536,0,0,0,0,0,0,0,0,4.0917,4.0934,4.1098,4.1107,4.1118,4.1246,4.1188,4.1314,4.1329,4.125,4.1332,4.1334,4.1419,4.1432,4.1462,4.1532,4.1539,4.1534,4.1537,4.154,4.1541,0,0,0,0,0,0,0,4.0908,4.0927,4.1097,4.11,4.1112,4.1142,4.1162,4.1213,4.1325,4.1257,4.1266,4.1286,4.1425,4.1456,4.1467,4.1542,4.1534,4.1539,4.1542,4.1545,4.1632,4.1631,0,0,0,0,0,0,4.0886,4.0918,4.1092,4.1102,4.1019,4.1145,4.1168,4.1203,4.1324,4.1344,4.1285,4.1291,4.1446,4.146,4.1473,4.1493,4.154,4.1545,4.1548,4.1633,4.1632,4.163,0,0,0,0,0,0,4.0881,4.09,4.1084,4.1013,4.1039,4.1148,4.1187,4.1206,4.1238,4.1345,4.1365,4.1296,4.1447,4.1465,4.1512,4.1501,4.1548,4.1553,4.1634,4.1633,4.1631,4.1531,0,0,0,0,0,0,4.0873,4.0898,4.0902,4.1012,4.1042,4.112,4.1186,4.1209,4.1248,4.1258,4.1361,4.138,4.145,4.1502,4.1517,4.151,4.1557,4.1636,4.1633,4.1632,4.1535,4.1526,4.1518,0,0,0,0,0,4.0865,4.0864,4.0901,4.0921,4.105,4.1119,4.1136,4.1218,4.1246,4.1252,4.1322,4.1376,4.15,4.1506,4.1524,4.1518,4.1637,4.1634,4.1632,4.1539,4.1528,4.1518,0,0,0,0,0,0,4.0747,4.088,4.0922,4.0958,4.1027,4.1139,4.1148,4.1202,4.1262,4.1268,4.1366,4.1389,4.1425,4.1476,4.1481,4.1534,4.1575,4.1576,4.1499,4.1489,4.148,4.1467,4.1562,0,0,0,0,0,4.0725,4.0771,4.0885,4.0906,4.0938,4.1037,4.107,4.1128,4.1202,4.1231,4.1304,4.1372,4.1427,4.1461,4.1517,4.1544,4.1569,4.1549,4.154,4.1532,4.1531,4.1553,4.1546,4.1622,4.1622,4.1622,0,0,4.068,4.0759,4.0782,4.0884,4.0944,4.0989,4.106,4.1104,4.1139,4.1237,4.1286,4.1342,4.1426,4.1463,4.1483,4.1507,4.1516,4.1529,4.1522,4.1526,4.1549,4.1542,4.1535,4.162,4.1621,4.1621,0,0,4.0623,4.0686,4.0712,4.0772,4.0863,4.0929,4.0935,4.1041,4.1083,4.1135,4.121,4.1253,4.1344,4.1402,4.1443,4.1412,4.1466,4.1427,4.138,4.14,4.1394,4.1389,4.138,4.1375,4.1427,4.1426,4.1426,0,4.0555,4.0627,4.0718,4.0759,4.0803,4.0897,4.0924,4.0977,4.108,4.1108,4.1134,4.1254,4.1316,4.1371,4.1364,4.1393,4.1404,4.1415,4.1388,4.1384,4.1381,4.1373,4.1369,4.1421,4.1422,4.1422,4.1423,0,4.0541,4.059,4.06,4.0701,4.0746,4.078,4.0876,4.091,4.0965,4.1029,4.1082,4.1161,4.1237,4.1254,4.1306,4.1316,4.1329,4.1369,4.1413,4.1367,4.1361,4.1359,4.1414,4.1416,4.1417,4.1418,0,0,4.0411,4.0565,4.0567,4.0616,4.0725,4.0765,4.0804,4.088,4.0909,4.0978,4.1014,4.1092,4.1132,4.1179,4.1239,4.1256,4.123,4.1296,4.1299,4.1282,4.1248,4.1217,4.1212,4.1267,4.1266,4.1266,4.1242,0,4.037,4.0447,4.0532,4.0579,4.0627,4.0719,4.0754,4.0824,4.0886,4.0936,4.1004,4.1058,4.1106,4.1135,4.1156,4.1228,4.1224,4.1231,4.1301,4.1302,4.1277,4.1209,4.1175,4.1148,4.124,4.124,4.1239,0,4.0332,4.0401,4.0453,4.0562,4.0586,4.0615,4.0694,4.074,4.0823,4.0867,4.0922,4.0987,4.1034,4.1073,4.114,4.1142,4.1177,4.1216,4.1218,4.1227,4.1267,4.1217,4.1141,4.1137,4.1236,4.1237,4.1237,0,4.0234,4.0339,4.0385,4.0424,4.0551,4.057,4.0624,4.0709,4.0751,4.082,4.0848,4.092,4.0959,4.1014,4.1098,4.1118,4.1157,4.1201,4.1195,4.1192,4.1198,4.1196,4.1127,4.1218,4.1219,4.1219,4.1219,0,4.0181,4.0209,4.0344,4.0372,4.0408,4.0505,4.0538,4.06,4.0675,4.0718,4.0801,4.0839,4.0947,4.0998,4.1064,4.111,4.1127,4.1164,4.1181,4.1157,4.1152,4.118,4.1185,4.1218,4.1218,4.1218,4.1218,0,4.0076,4.0167,4.0224,4.0342,4.0372,4.0393,4.0494,4.0526,4.0594,4.0646,4.0664,4.0771,4.0835,4.0925,4.1016,4.1061,4.1098,4.1125,4.1071,4.1081,4.107,4.107,4.1016,4.1015,4.1105,4.1104,4.1104,0,4.0036,4.0061,4.0183,4.0218,4.027,4.0326,4.037,4.0468,4.051,4.061,4.0629,4.0701,4.0764,4.0863,4.0948,4.1019,4.1049,4.1025,4.1059,4.1035,4.105,4.1048,4.1052,4.1016,4.1015,4.1013,4.1012,0,3.9956,4.0001,4.0062,4.014,4.0192,4.0257,4.0327,4.0351,4.0463,4.0507,4.0576,4.0624,4.072,4.0791,4.0874,4.093,4.099,4.1001,4.1004,4.0979,4.0947,4.0966,4.1049,4.1002,4.1003,4.1004,4.1004,4.1005,3.9884,3.9912,4.0003,4.0069,4.0133,4.0197,4.0233,4.0308,4.0367,4.0454,4.0508,4.0574,4.0661,4.0779,4.0832,4.0886,4.091,4.0913,4.0914,4.0913,4.0906,4.0939,4.0901,4.0902,4.0902,4.0902,4.0903,0,3.9809,3.9874,3.9934,4.003,4.0083,4.0138,4.0219,4.0259,4.0317,4.0393,4.0455,4.0535,4.0605,4.0697,4.0774,4.0799,4.0829,4.0816,4.0815,4.0827,4.0879,4.087,4.0791,4.0791,4.0791,4.0791,4.0791,4.0791,3.9777,3.9828,3.9884,3.9968,4.0032,4.01,4.0142,4.0202,4.0263,4.035,4.0409,4.047,4.0553,4.0637,4.0704,4.073,4.0754,4.0733,4.0767,4.0813,4.0823,4.0833,4.0825,4.0737,4.0737,4.0711,4.0711,4.0711]}]]